Powrót do katalogu

FENGYUN 1C DEB

AktywnyLEO
NORAD 31657·DEBRIS·🇨🇳 China

Wystrzelony May 10, 1999 z Taiyuan Satellite Launch Center

Loading…

Następne Przeloty (najbliższe 24 godziny)

TLE

Starzejące sięSource: Space-Track

Epoka: Sep 10, 2026, 05:39 UTC

1 31657U 99025CBP 26253.23586788  .00001003  00000-0  67561-3 0  9994
2 31657 102.2119 251.5996 0146152 113.9763 247.6769 13.99138889666598

Śledź FENGYUN 1C DEB w czasie rzeczywistym z AllMySat

Download on the App Store